FW8067 Weather Reports


Display with metric or nautical units.
time (UTC)temp
F
wind
direction
speed
MPH
gust
MPH
rain 1hr
in
rain 24hr
in
rain mn
in
humidity
%
barometer
mb
20260507124729 56 248 0.0 0.0 0.00 0.96 0.24 63 995.6
20260507124229 56 248 0.0 0.0 0.00 0.96 0.24 63 995.2
20260507123729 56 248 0.0 0.0 0.00 0.96 0.24 65 995.4
20260507123229 56 225 0.0 0.0 0.00 0.96 0.24 64 995.2
20260507122230 56 225 0.0 0.0 0.00 0.96 0.24 62 995.5
20260507121729 56 225 0.0 0.0 0.00 0.96 0.24 64 995.3
20260507120729 56 225 0.0 0.0 0.00 0.96 0.24 63 995.6
20260507120229 56 225 0.0 0.0 0.00 0.96 0.24 65 995.9
20260507115229 56 225 0.0 0.0 0.00 0.96 0.24 64 995.6
20260507114729 56 225 0.0 0.0 0.00 0.96 0.24 64 995.7
20260507113726 56 225 0.0 0.0 0.00 0.96 0.24 67 995.5
20260507113224 56 225 0.0 0.0 0.00 0.96 0.24 67 995.4
20260507112722 56 203 0.0 0.0 0.00 0.96 0.24 67 995.3
20260507112217 57 203 0.0 0.0 0.00 0.96 0.24 64 995.0
20260507111716 57 225 0.0 0.0 0.00 0.96 0.24 64 994.9
20260507111212 57 225 0.0 0.0 0.00 0.96 0.24 64 995.2
20260507110702 57 225 0.0 0.0 0.00 0.96 0.24 65 995.0
20260507110201 57 203 0.0 0.0 0.00 0.96 0.24 65 995.5
20260507105701 57 225 0.0 0.0 0.00 0.96 0.24 65 995.3
20260507105203 57 225 0.0 0.0 0.00 0.96 0.24 66 995.4
20260507104201 57 225 0.0 0.0 0.00 0.96 0.24 66 995.6
20260507103702 57 203 0.0 0.0 0.00 0.96 0.24 69 995.6
20260507103201 57 225 0.0 0.0 0.00 0.96 0.24 71 995.5
20260507102201 57 225 0.0 0.0 0.00 0.96 0.24 69 995.7
20260507101701 57 225 0.0 0.0 0.00 0.96 0.24 67 995.3
20260507101202 58 203 0.0 0.0 0.00 0.96 0.24 67 994.9
20260507100702 58 203 0.0 0.0 0.00 0.96 0.24 67 994.7
20260507095701 57 203 0.0 0.0 0.00 0.96 0.24 70 994.4
20260507095201 58 225 0.0 0.0 0.00 0.96 0.24 68 994.2
20260507094701 58 203 0.0 0.0 0.00 0.96 0.24 68 994.5
20260507094201 58 180 0.0 0.0 0.00 0.96 0.24 68 994.4
20260507093702 58 203 0.0 0.0 0.00 0.96 0.24 68 994.2
20260507093202 58 203 0.0 0.0 0.00 0.96 0.24 68 993.9
20260507092701 58 203 0.0 0.0 0.00 0.96 0.24 69 994.3
20260507092201 58 203 0.0 0.0 0.00 0.96 0.24 68 994.5
20260507091701 58 203 0.0 0.0 0.00 0.96 0.24 69 994.3
20260507091202 58 180 0.0 0.0 0.00 0.96 0.24 68 994.0
20260507090701 58 180 0.0 0.0 0.00 0.96 0.24 68 994.2
20260507090201 58 203 0.0 0.0 0.00 0.96 0.24 68 994.2
20260507085700 58 203 0.0 0.0 0.00 0.96 0.24 68 993.7
20260507085200 59 180 0.0 0.0 0.00 0.96 0.24 67 994.2
20260507084157 59 203 0.0 0.0 0.00 0.96 0.24 68 994.1
20260507083654 59 180 0.0 0.0 0.00 0.96 0.24 69 994.3
20260507083151 58 203 0.0 0.0 0.00 0.96 0.24 70 994.4
20260507082648 59 203 0.0 0.0 0.00 0.96 0.24 70 994.3
20260507082146 59 180 0.0 0.0 0.00 0.96 0.24 68 993.8
20260507081642 60 180 0.0 0.0 0.00 0.96 0.24 66 994.0
20260507081139 60 203 0.0 0.0 0.00 0.96 0.24 63 994.2
20260507080134 61 203 0.0 0.0 0.00 0.96 0.24 62 994.4
20260507075630 61 225 0.0 0.0 0.00 0.96 0.24 65 994.5
20260507075130 61 180 0.0 0.0 0.00 0.96 0.24 69 994.2
20260507074629 61 225 0.0 0.0 0.00 0.96 0.24 70 994.1
20260507074129 63 203 0.0 0.0 0.00 0.96 0.24 69 994.0
20260507073629 63 225 0.0 0.0 0.00 0.96 0.24 71 994.0
20260507073128 63 225 0.0 0.0 0.00 0.96 0.24 77 994.3
20260507072630 64 225 0.0 0.0 0.00 0.96 0.24 81 994.1
20260507071629 64 225 0.0 0.0 0.00 0.96 0.24 85 993.8
20260507071129 65 203 0.0 0.0 0.00 0.96 0.24 86 993.7
20260507070159 65 225 0.0 0.0 0.00 0.96 0.24 89 993.5
20260507065629 65 225 0.0 0.0 0.00 0.96 0.24 90 993.5
20260507064629 65 225 0.0 0.0 0.00 0.96 0.24 90 992.8
20260507064129 65 225 0.0 0.0 0.00 0.96 0.24 91 993.1
20260507063630 65 203 0.0 0.0 0.00 0.96 0.24 91 993.1
20260507063133 65 203 0.0 0.0 0.00 0.96 0.24 92 992.6
20260507062629 65 225 0.0 0.0 0.00 0.96 0.24 93 992.8
20260507062129 65 225 0.0 0.0 0.00 0.96 0.24 93 992.8
20260507061629 65 225 0.0 0.0 0.00 0.96 0.24 93 992.6
20260507061130 65 225 0.0 0.0 0.00 0.96 0.24 95 992.6
20260507060630 65 225 0.0 0.0 0.00 0.96 0.24 95 992.7
20260507055630 65 225 0.0 0.0 0.00 0.96 0.24 95 992.9
20260507055129 65 248 0.0 0.0 0.00 0.96 0.24 95 993.2
20260507054629 65 248 0.0 0.0 0.00 0.96 0.24 95 993.0
20260507054129 65 225 0.0 0.0 0.00 0.96 0.24 95 992.4
20260507053630 65 225 0.0 0.0 0.00 0.96 0.24 95 992.4
20260507053130 64 225 0.0 0.0 0.00 0.96 0.24 95 991.8
20260507052630 64 248 0.0 0.0 0.00 0.96 0.24 95 991.6
20260507052130 64 225 0.0 0.0 0.00 0.96 0.24 94 991.6
20260507051130 63 225 0.0 0.0 0.00 0.96 0.24 94 991.5
20260507050630 63 225 0.0 0.0 0.00 0.96 0.24 94 991.7
20260507050129 63 203 0.0 0.0 0.00 0.96 0.24 94 991.8
20260507045129 63 203 0.0 0.0 0.00 0.96 0.24 93 991.3
20260507044628 63 225 0.0 0.0 0.00 0.96 0.24 93 991.4
20260507044130 63 225 0.0 0.0 0.00 0.96 0.24 93 991.2
20260507043130 63 225 0.0 0.0 0.01 0.96 0.24 94 991.5
20260507042629 62 225 0.0 0.0 0.01 0.96 0.24 95 991.6
20260507042128 62 225 0.0 0.0 0.01 0.96 0.24 96 991.6
20260507041629 63 248 0.0 0.0 0.01 0.96 0.24 96 991.6
20260507041130 63 225 0.0 0.0 0.06 0.96 0.24 97 991.6
20260507035629 62 225 0.0 0.0 0.26 0.72 0.24 98 990.9
20260507035129 62 203 0.0 0.0 0.27 0.72 0.24 98 991.1
20260507034630 62 225 0.0 0.0 0.28 0.72 0.24 98 991.4
20260507034139 62 203 0.0 0.0 0.39 0.72 0.24 97 991.4
20260507033630 62 203 0.0 0.0 0.44 0.72 0.24 97 991.6
20260507033130 62 203 0.0 0.0 0.46 0.72 0.22 97 991.6
20260507032130 62 225 0.0 0.0 0.64 0.72 0.22 97 991.9
20260507031629 62 180 0.0 0.0 0.69 0.72 0.22 97 992.1
20260507031130 62 135 0.0 0.0 0.81 0.72 0.14 97 991.6
20260507030630 62 158 0.0 0.0 0.79 0.72 0.07 97 991.6
20260507030129 62 158 0.0 0.0 0.74 0.72 0.02 97 991.7
20260507025629 62 180 0.0 0.0 0.70 0.00 0.70 97 991.8
20260507024630 62 180 0.0 0.0 0.67 0.00 0.66 97 991.5
20260507024129 62 180 0.0 0.0 0.57 0.00 0.57 97 991.9
20260507023628 62 203 0.0 0.0 0.52 0.00 0.51 97 992.3
20260507023128 62 203 0.0 0.0 0.48 0.00 0.47 96 992.2
20260507022627 62 203 0.0 0.0 0.44 0.00 0.44 96 992.0
20260507022124 62 203 0.0 0.0 0.31 0.00 0.31 96 991.7
20260507021621 63 203 0.0 0.0 0.26 0.00 0.24 94 991.4
20260507021120 64 248 0.0 0.0 0.05 0.00 0.05 93 991.2
20260507020615 66 203 0.0 0.0 0.00 0.00 0.00 86 991.5
20260507015601 73 270 0.0 0.0 0.00 0.00 0.00 76 991.7
20260507015101 74 293 0.0 0.0 0.00 0.00 0.00 86 990.9
20260507014602 74 293 0.0 0.0 0.00 0.00 0.00 87 990.8
20260507014101 73 338 0.0 0.0 0.00 0.00 0.00 88 990.2
20260507013601 72 0 0.0 0.0 0.00 0.00 0.00 88 989.6
20260507013101 72 338 0.0 0.0 0.00 0.00 0.00 89 990.0
20260507011601 69 0 0.0 0.0 0.00 0.00 0.00 91 989.8
20260507010052 70 0 0.0 0.0 0.00 0.00 0.00 89 990.5
20260507005549 71 0 0.0 0.0 0.00 0.00 0.00 88 990.4
20260507005046 71 0 0.0 0.0 0.00 0.00 0.00 88 990.6
20260507004543 70 0 0.0 0.0 0.00 0.00 0.00 88 990.6
20260507003529 71 0 0.0 0.0 0.00 0.00 0.00 87 990.3
20260507003030 71 0 0.0 0.0 0.00 0.00 0.00 86 990.2
20260507002529 72 0 0.0 0.0 0.00 0.00 0.00 85 990.3
20260507002028 72 0 0.0 0.0 0.00 0.00 0.00 84 990.2
20260507001529 72 0 0.0 0.0 0.00 0.00 0.00 85 990.4
20260507000529 72 0 0.0 0.0 0.00 0.00 0.00 85 990.6
20260506235529 72 0 0.0 0.0 0.00 0.00 0.00 83 990.6
20260506235028 73 0 0.0 0.0 0.00 0.00 0.00 82 990.4
20260506234530 74 0 0.0 0.0 0.00 0.00 0.00 82 990.5
20260506234029 74 0 0.0 0.0 0.00 0.00 0.00 81 990.8
20260506233529 74 0 0.0 0.0 0.00 0.00 0.00 81 990.7
20260506232029 76 338 0.0 0.0 0.00 0.00 0.00 79 990.7
20260506231530 76 338 0.0 0.0 0.00 0.00 0.00 79 990.7
20260506231029 75 338 0.0 0.0 0.00 0.00 0.00 80 990.7
20260506230529 75 338 0.0 0.0 0.00 0.00 0.00 82 990.6
20260506230029 75 338 0.0 0.0 0.00 0.00 0.00 82 990.7
20260506225529 75 338 0.0 0.0 0.00 0.00 0.00 82 990.5
20260506225030 75 338 0.0 0.0 0.00 0.00 0.00 81 990.5
20260506224530 75 338 0.0 0.0 0.00 0.00 0.00 81 990.4
20260506224031 75 338 0.0 0.0 0.00 0.00 0.00 79 990.4
20260506223529 76 338 0.0 0.0 0.00 0.00 0.00 79 990.0
20260506223029 76 338 0.0 0.0 0.00 0.00 0.00 79 990.0
20260506222528 77 338 0.0 0.0 0.00 0.00 0.00 77 989.9
20260506222029 77 338 0.0 0.0 0.00 0.00 0.00 77 989.9
20260506221531 78 338 0.0 0.0 0.00 0.00 0.00 75 989.6
20260506221029 79 338 0.0 0.0 0.00 0.00 0.00 73 989.6
20260506220529 80 338 0.0 0.0 0.00 0.00 0.00 72 989.6
20260506215530 80 338 0.0 0.0 0.00 0.00 0.00 71 989.5
20260506215031 81 338 0.0 0.0 0.00 0.00 0.00 70 989.4
20260506214529 81 338 0.0 0.0 0.00 0.00 0.00 70 989.5
20260506214030 81 338 0.0 0.0 0.00 0.00 0.00 70 989.2
20260506213529 81 338 0.0 0.0 0.00 0.00 0.00 70 988.9
20260506213029 81 338 0.0 0.0 0.00 0.00 0.00 69 988.8
20260506212030 81 338 0.0 0.0 0.00 0.00 0.00 68 988.7
20260506211029 82 0 0.0 0.0 0.00 0.00 0.00 67 988.2
20260506210030 83 0 0.0 0.0 0.00 0.00 0.00 66 988.6
20260506205530 83 338 0.0 0.0 0.00 0.00 0.00 66 988.5
20260506205029 83 338 0.0 0.0 0.00 0.00 0.00 65 988.5
20260506204529 83 0 0.0 0.0 0.00 0.00 0.00 65 988.7
20260506204028 83 0 0.0 0.0 0.00 0.00 0.00 64 988.2
20260506203531 84 0 0.0 0.0 0.00 0.00 0.00 64 988.1
20260506202529 84 23 0.0 0.0 0.00 0.00 0.00 62 988.4
20260506201529 85 0 0.0 0.0 0.00 0.00 0.00 60 988.3
20260506200525 86 338 0.0 0.0 0.00 0.00 0.00 59 988.3
20260506200022 86 0 0.0 0.0 0.00 0.00 0.00 59 988.5
20260506194513 87 338 0.0 0.0 0.00 0.00 0.00 59 988.6
20260506194002 87 0 0.0 0.0 0.00 0.00 0.00 58 988.5
20260506193502 86 0 0.0 0.0 0.00 0.00 0.00 58 988.9
20260506193001 88 338 0.0 0.0 0.00 0.00 0.00 56 989.0
20260506192501 88 0 0.0 0.0 0.00 0.00 0.00 56 989.2
20260506192001 88 338 0.0 0.0 0.00 0.00 0.00 57 989.3
20260506191501 87 338 0.0 0.0 0.00 0.00 0.00 57 989.4
20260506190502 87 338 0.0 0.0 0.00 0.00 0.00 58 989.5
20260506190002 86 338 0.0 0.0 0.00 0.00 0.00 59 989.8
20260506185502 86 315 0.0 0.0 0.00 0.00 0.00 59 989.8
20260506184501 87 0 0.0 0.0 0.00 0.00 0.00 58 989.9
20260506184001 86 0 0.0 0.0 0.00 0.00 0.00 59 989.9
20260506183501 86 0 0.0 0.0 0.00 0.00 0.00 59 989.9
20260506183001 86 338 0.0 0.0 0.00 0.00 0.00 59 990.2
20260506182501 87 338 0.0 0.0 0.00 0.00 0.00 58 990.2
20260506182002 86 0 0.0 0.0 0.00 0.00 0.00 58 990.2
20260506181502 86 315 0.0 0.0 0.00 0.00 0.00 61 990.1
20260506180501 87 0 0.0 0.0 0.00 0.00 0.00 59 990.2
20260506175501 88 315 0.0 0.0 0.00 0.00 0.00 57 990.3
20260506175002 88 0 0.0 0.0 0.00 0.00 0.00 57 990.1
20260506174502 86 0 0.0 0.0 0.00 0.00 0.00 59 990.3
20260506174001 86 0 0.0 0.0 0.00 0.00 0.00 60 990.2
20260506173501 85 0 0.0 0.0 0.00 0.00 0.00 61 990.3
20260506173001 85 0 0.0 0.0 0.00 0.00 0.00 62 990.5
20260506172501 86 338 0.0 0.0 0.00 0.00 0.00 61 990.5
20260506172001 86 338 0.0 0.0 0.00 0.00 0.00 61 990.7
20260506171501 86 0 0.0 0.0 0.00 0.00 0.00 60 990.7
20260506171001 86 338 0.0 0.0 0.00 0.00 0.00 60 990.9
20260506170501 86 338 0.0 0.0 0.00 0.00 0.00 59 991.1
20260506170001 86 338 0.0 0.0 0.00 0.00 0.00 59 991.2
20260506165501 86 338 0.0 0.0 0.00 0.00 0.00 62 991.2
20260506165001 84 338 0.0 0.0 0.00 0.00 0.00 66 991.5
20260506164501 85 338 0.0 0.0 0.00 0.00 0.00 64 991.6
20260506164001 85 315 0.0 0.0 0.00 0.00 0.00 64 991.5
20260506163501 85 23 0.0 0.0 0.00 0.00 0.00 65 991.6
20260506163001 85 338 0.0 0.0 0.00 0.00 0.00 63 991.6
20260506162501 85 23 0.0 0.0 0.00 0.00 0.00 64 991.6
20260506162001 85 0 0.0 0.0 0.00 0.00 0.00 66 991.7
20260506161501 83 23 0.0 0.0 0.00 0.00 0.00 69 991.9
20260506160501 83 315 0.0 0.0 0.00 0.00 0.00 69 992.6
20260506155501 83 0 0.0 0.0 0.00 0.00 0.00 69 992.7
20260506155002 82 0 0.0 0.0 0.00 0.00 0.00 70 992.8
20260506154501 82 338 0.0 0.0 0.00 0.00 0.00 72 993.2
20260506154002 81 0 0.0 0.0 0.00 0.00 0.00 72 993.1
20260506153501 82 338 0.0 0.0 0.00 0.00 0.00 73 993.3
20260506153001 81 0 0.0 0.0 0.00 0.00 0.00 73 993.5
20260506152501 81 0 0.0 0.0 0.00 0.00 0.00 74 993.4
20260506152001 80 338 0.0 0.0 0.00 0.00 0.00 75 993.7
20260506151501 80 338 0.0 0.0 0.00 0.00 0.00 77 993.8
20260506151001 79 0 0.0 0.0 0.00 0.00 0.00 78 993.9
20260506150501 79 338 0.0 0.0 0.00 0.00 0.00 78 994.1
20260506145501 78 0 0.0 0.0 0.00 0.00 0.00 80 994.5
20260506145031 78 315 0.0 0.0 0.00 0.00 0.00 80 994.6
20260506144501 78 338 0.0 0.0 0.00 0.00 0.00 82 994.6
20260506144002 77 0 0.0 0.0 0.00 0.00 0.00 82 994.7
20260506143502 77 0 0.0 0.0 0.00 0.00 0.00 81 994.9
20260506143001 76 338 0.0 0.0 0.00 0.00 0.00 84 995.0
20260506142503 76 0 0.0 0.0 0.00 0.00 0.00 85 994.9
20260506141501 75 338 0.0 0.0 0.00 0.00 0.00 87 994.8
20260506141001 74 338 0.0 0.0 0.00 0.00 0.00 88 994.7
20260506140002 74 0 0.0 0.0 0.00 0.00 0.00 88 995.3
20260506135501 74 338 0.0 0.0 0.00 0.00 0.00 88 995.4
20260506135001 74 315 0.0 0.0 0.00 0.00 0.00 88 995.4
20260506134502 74 0 0.0 0.0 0.00 0.00 0.00 88 995.3
20260506133502 76 23 0.0 0.0 0.00 0.00 0.00 86 995.2
20260506132501 74 45 0.0 0.0 0.00 0.00 0.00 94 995.1
20260506132001 73 23 0.0 0.0 0.00 0.00 0.00 96 995.3
20260506131502 73 23 0.0 0.0 0.00 0.00 0.00 98 995.4
20260506130458 72 23 0.0 0.0 0.00 0.00 0.00 99 995.4
20260506125954 71 0 0.0 0.0 0.00 0.00 0.00 99 995.5
20260506125452 70 45 0.0 0.0 0.00 0.00 0.00 99 995.4
20260506124949 70 23 0.0 0.0 0.00 0.00 0.00 99 995.4